Location: Rowland
(34.5359°N, 79.2929°W)
Time: 16:49:16
(UTC+00:00)

SR - Pass Details

Date: 09 October 2022
Orbit: 577 x 874 km, 66.7° (Epoch: 05 December)

Event Time Altitude Azimuth Distance (km) Brightness Sun altitude
Rises 10:20:03 0° 326° (NNW) 3,234 ? -12.7°
Reaches altitude 10° 10:22:37 10° 321° (NW) 2,255 ? -12.2°
Maximum altitude 10:27:28 45° 250° (WSW) 951 ? -11.2°
Drops below altitude 10° 10:31:55 10° 178° (S) 2,058 ? -10.3°
Sets 10:34:11 0° 171° (S) 2,922 ? -9.8°
